GSAT0209 (PRN E09)

Last updated on June 16, 2019, 3:38 a.m. UTC

1 41174U 15079A   19166.36029750  .00000068  00000-0  00000+0 0  9997
2 41174  54.9475 171.6144 0006544 298.0504  61.9081  1.70473492 21739
UTC
Height (km)
Latitude
Longitude
Inclination
Orbital Period
UTC large
Height (km)
Speed (km/s)
/
Latitude / Longitude
Inclination (degrees)
Orbital Period (minutes)
Azimuth
Elevation
Range (km)
Doppler Factor
iOS Compass Heading
iOS Angle

Next 30 passes for location: Hong Kong

Rise time Rise Azimuth (degrees) Set time Set Azimuth (degrees) Duration Max altitude (degrees)

No matching passes for this satellites